TRA712 LGSK-EBBR

Flight info

Callsign TRA712
Flight time 2h 46m
Altitude 36000
Route TSL UN130 TALAS DCT MAVAR DCT AKIKA DCT VEKEN DCT ERKIR L608 KUNOD DCT EDISA DCT LIMGO N852 LNO
Aircraft B738/M-SDE2E3FGHIRWXY/LB1

Departure

Time 2026-04-14 10:33
Airport Skiathos Island National Airport (LGSK)

Arrival

Time 2026-04-14 13:19
Airport Brussels Airport (EBBR)
Time Latitude Longitude Altitude Speed Heading
2026-04-14 10:00 39.17911 23.50231 64 ft 0 kts 289°
2026-04-14 10:25 39.17910 23.50234 64 ft 2 kts 289°
2026-04-14 10:25 39.17905 23.50256 57 ft 3 kts 282°
2026-04-14 10:26 39.17902 23.50282 57 ft 3 kts 266°
2026-04-14 10:26 39.17906 23.50306 55 ft 3 kts 238°
2026-04-14 10:26 39.17916 23.50319 56 ft 1 kts 201°
2026-04-14 10:26 39.17918 23.50320 56 ft 1 kts 199°
2026-04-14 10:28 39.17914 23.50318 56 ft 2 kts 199°
2026-04-14 10:28 39.17877 23.50302 57 ft 9 kts 199°
2026-04-14 10:29 39.17807 23.50271 60 ft 12 kts 198°
2026-04-14 10:29 39.17718 23.50246 58 ft 13 kts 186°
2026-04-14 10:29 39.17626 23.50224 55 ft 14 kts 195°
2026-04-14 10:29 39.17572 23.50228 51 ft 8 kts 139°
2026-04-14 10:30 39.17524 23.50272 51 ft 10 kts 167°
2026-04-14 10:30 39.17446 23.50247 47 ft 13 kts 199°
2026-04-14 10:30 39.17346 23.50203 39 ft 17 kts 199°
2026-04-14 10:30 39.17217 23.50147 29 ft 21 kts 198°
2026-04-14 10:31 39.17107 23.50098 22 ft 14 kts 199°
2026-04-14 10:31 39.17027 23.50092 18 ft 8 kts 194°
2026-04-14 10:31 39.17018 23.50054 17 ft 2 kts 321°
2026-04-14 10:31 39.17031 23.50061 19 ft 2 kts 21°
2026-04-14 10:32 39.17152 23.50117 30 ft 56 kts 20°
2026-04-14 10:32 39.17777 23.50394 64 ft 131 kts 18°
2026-04-14 10:32 39.18745 23.50830 611 ft 152 kts 19°
2026-04-14 10:33 39.19779 23.51300 1380 ft 163 kts 22°
2026-04-14 10:33 39.20929 23.51807 2023 ft 187 kts 21°
2026-04-14 10:33 39.22220 23.52382 2667 ft 204 kts 21°
2026-04-14 10:33 39.23587 23.53002 3287 ft 212 kts 21°
2026-04-14 10:34 39.26531 23.54393 4163 ft 236 kts 33°
2026-04-14 10:34 39.27623 23.55937 4807 ft 235 kts 69°
2026-04-14 10:34 39.27857 23.57988 5495 ft 232 kts 104°
2026-04-14 10:35 39.27393 23.59978 6247 ft 234 kts 112°
2026-04-14 10:35 39.26809 23.61967 6905 ft 239 kts 121°
2026-04-14 10:35 39.25697 23.63521 7546 ft 236 kts 153°
2026-04-14 10:35 39.24141 23.64093 8210 ft 235 kts 184°
2026-04-14 10:36 39.22582 23.63565 8862 ft 234 kts 213°
2026-04-14 10:36 39.21438 23.62095 9539 ft 235 kts 242°
2026-04-14 10:36 39.21025 23.60075 10266 ft 236 kts 271°
2026-04-14 10:36 39.21456 23.58017 10845 ft 247 kts 298°
2026-04-14 10:37 39.22673 23.56345 11043 ft 276 kts 322°
2026-04-14 10:37 39.24485 23.55261 11240 ft 304 kts 341°
2026-04-14 10:37 39.26632 23.54609 11418 ft 329 kts 345°
2026-04-14 10:37 39.28955 23.54013 11704 ft 347 kts 346°
2026-04-14 10:38 39.31350 23.53376 12310 ft 354 kts 345°
2026-04-14 10:38 39.33759 23.52684 13089 ft 355 kts 343°
2026-04-14 10:38 39.36173 23.51946 13845 ft 358 kts 342°
2026-04-14 10:38 39.38612 23.51177 14493 ft 362 kts 342°
2026-04-14 10:39 39.41073 23.50394 15114 ft 366 kts 341°
2026-04-14 10:39 39.43513 23.49429 15746 ft 368 kts 336°
2026-04-14 10:39 39.45929 23.48287 16378 ft 371 kts 335°
2026-04-14 10:39 39.48318 23.47104 16985 ft 374 kts 334°
2026-04-14 10:40 39.49961 23.46282 17408 ft 377 kts 334°
2026-04-14 10:40 39.52422 23.45054 18035 ft 381 kts 334°
2026-04-14 10:40 39.55727 23.43419 18792 ft 386 kts 334°
2026-04-14 10:40 39.58246 23.42183 19361 ft 388 kts 334°
2026-04-14 10:41 39.60776 23.40946 19949 ft 389 kts 334°
2026-04-14 10:41 39.63319 23.39707 20517 ft 391 kts 334°
2026-04-14 10:41 39.65012 23.38882 20890 ft 393 kts 334°
2026-04-14 10:41 39.67579 23.37631 21431 ft 395 kts 334°
2026-04-14 10:42 39.70162 23.36371 21952 ft 398 kts 334°
2026-04-14 10:42 39.72768 23.35100 22484 ft 400 kts 334°
2026-04-14 10:42 39.75382 23.33824 23001 ft 402 kts 333°
2026-04-14 10:42 39.78012 23.32539 23513 ft 405 kts 333°
2026-04-14 10:43 39.80657 23.31245 23966 ft 407 kts 333°
2026-04-14 10:43 39.83319 23.29942 24370 ft 410 kts 333°
2026-04-14 10:43 39.85998 23.28629 24752 ft 413 kts 333°
2026-04-14 10:43 39.88695 23.27307 25135 ft 416 kts 333°
2026-04-14 10:44 39.91410 23.25975 25508 ft 418 kts 333°
2026-04-14 10:44 39.94144 23.24632 25885 ft 421 kts 333°
2026-04-14 10:44 39.96901 23.23277 26248 ft 424 kts 333°
2026-04-14 10:44 39.99668 23.21915 26602 ft 426 kts 333°
2026-04-14 10:45 40.02421 23.20560 26942 ft 429 kts 333°
2026-04-14 10:45 40.05222 23.19179 27276 ft 432 kts 333°
2026-04-14 10:45 40.08041 23.17789 27613 ft 434 kts 333°
2026-04-14 10:45 40.10882 23.16387 27938 ft 437 kts 333°
2026-04-14 10:46 40.13734 23.14978 28256 ft 439 kts 333°
2026-04-14 10:46 40.16608 23.13556 28581 ft 442 kts 333°
2026-04-14 10:46 40.19496 23.12127 28889 ft 444 kts 333°
2026-04-14 10:46 40.22389 23.10693 29185 ft 447 kts 333°
2026-04-14 10:47 40.25311 23.09244 29484 ft 449 kts 333°
2026-04-14 10:47 40.28236 23.07792 29770 ft 452 kts 333°
2026-04-14 10:47 40.31187 23.06327 30095 ft 453 kts 333°
2026-04-14 10:47 40.34133 23.04863 30475 ft 452 kts 333°
2026-04-14 10:48 40.37341 23.03268 30913 ft 450 kts 333°
2026-04-14 10:48 40.40262 23.01814 31309 ft 448 kts 333°
2026-04-14 10:48 40.43109 23.00205 31631 ft 442 kts 325°
2026-04-14 10:48 40.45661 22.98016 31952 ft 434 kts 316°
2026-04-14 10:49 40.47886 22.95399 32301 ft 426 kts 307°
2026-04-14 10:49 40.49722 22.92459 32637 ft 420 kts 302°
2026-04-14 10:49 40.51489 22.89401 32935 ft 420 kts 301°
2026-04-14 10:49 40.53241 22.86331 33241 ft 419 kts 301°
2026-04-14 10:50 40.54995 22.83266 33597 ft 418 kts 302°
2026-04-14 10:50 40.56749 22.80222 33917 ft 417 kts 302°
2026-04-14 10:50 40.58506 22.77187 34189 ft 417 kts 302°
2026-04-14 10:50 40.60272 22.74147 34438 ft 417 kts 302°
2026-04-14 10:51 40.62037 22.71113 34700 ft 416 kts 302°
2026-04-14 10:51 40.63796 22.68089 34926 ft 416 kts 302°
2026-04-14 10:51 40.65555 22.65061 35137 ft 416 kts 302°
2026-04-14 10:51 40.67313 22.62033 35374 ft 416 kts 302°
2026-04-14 10:52 40.69069 22.59004 35596 ft 416 kts 302°
2026-04-14 10:52 40.70826 22.55970 35818 ft 415 kts 302°
2026-04-14 10:52 40.72555 22.52982 36025 ft 415 kts 302°
2026-04-14 10:52 40.74309 22.49946 36200 ft 416 kts 302°
2026-04-14 10:53 40.76070 22.46897 36191 ft 419 kts 302°
2026-04-14 10:53 40.79598 22.40781 36198 ft 416 kts 302°
2026-04-14 10:54 40.83091 22.34717 36200 ft 413 kts 302°
2026-04-14 10:54 40.86562 22.28674 36200 ft 412 kts 302°
2026-04-14 10:55 40.90016 22.22647 36200 ft 411 kts 302°
2026-04-14 10:55 40.93449 22.16647 36189 ft 411 kts 302°
2026-04-14 10:56 40.96902 22.10598 36194 ft 412 kts 302°
2026-04-14 10:56 41.00371 22.04509 36185 ft 414 kts 302°
2026-04-14 10:57 41.03846 21.98400 36179 ft 416 kts 302°
2026-04-14 10:57 41.07306 21.92301 36175 ft 417 kts 301°
2026-04-14 10:58 41.10318 21.85770 36167 ft 415 kts 296°
2026-04-14 10:58 41.13195 21.79094 36160 ft 417 kts 296°
2026-04-14 10:59 41.16087 21.72396 36157 ft 419 kts 296°
2026-04-14 10:59 41.18995 21.65686 36150 ft 419 kts 296°
2026-04-14 11:00 41.21904 21.58977 36147 ft 420 kts 296°
2026-04-14 11:00 41.24814 21.52253 36136 ft 420 kts 296°
2026-04-14 11:01 41.27718 21.45525 36131 ft 419 kts 296°
2026-04-14 11:01 41.30615 21.38803 36126 ft 417 kts 296°
2026-04-14 11:02 41.33485 21.32124 36129 ft 415 kts 296°
2026-04-14 11:02 41.36320 21.25513 36114 ft 413 kts 296°
2026-04-14 11:03 41.39158 21.18878 36117 ft 412 kts 296°
2026-04-14 11:03 41.42000 21.12217 36119 ft 413 kts 296°
2026-04-14 11:04 41.44844 21.05541 36118 ft 415 kts 296°
2026-04-14 11:04 41.47698 20.98823 36106 ft 417 kts 295°
2026-04-14 11:05 41.50556 20.92083 36101 ft 419 kts 295°
2026-04-14 11:05 41.53431 20.85288 36095 ft 421 kts 295°
2026-04-14 11:06 41.56296 20.78500 36095 ft 423 kts 295°
2026-04-14 11:06 41.59183 20.71645 36082 ft 424 kts 295°
2026-04-14 11:07 41.62076 20.64759 36069 ft 424 kts 295°
2026-04-14 11:07 41.64964 20.57872 36057 ft 425 kts 295°
2026-04-14 11:08 41.68456 20.51521 36070 ft 431 kts 310°
2026-04-14 11:08 41.73106 20.46369 36055 ft 435 kts 317°
2026-04-14 11:09 41.77903 20.41413 36055 ft 435 kts 317°
2026-04-14 11:09 41.82667 20.36441 36040 ft 434 kts 317°
2026-04-14 11:10 41.89781 20.28914 36052 ft 433 kts 317°
2026-04-14 11:10 41.94503 20.23890 36053 ft 433 kts 317°
2026-04-14 11:11 41.99197 20.18886 36060 ft 433 kts 317°
2026-04-14 11:11 42.03955 20.13804 36057 ft 434 kts 317°
2026-04-14 11:12 42.08661 20.08769 36050 ft 435 kts 317°
2026-04-14 11:12 42.13402 20.03687 36055 ft 436 kts 317°
2026-04-14 11:13 42.18152 19.98587 36061 ft 437 kts 317°
2026-04-14 11:13 42.22906 19.93471 36071 ft 437 kts 317°
2026-04-14 11:14 42.27668 19.88335 36069 ft 439 kts 317°
2026-04-14 11:14 42.32435 19.83185 36071 ft 439 kts 317°
2026-04-14 11:15 42.36403 19.78890 36065 ft 440 kts 317°
2026-04-14 11:15 42.41177 19.73713 36068 ft 439 kts 317°
2026-04-14 11:16 42.45940 19.68537 36058 ft 439 kts 317°
2026-04-14 11:16 42.50709 19.63345 36060 ft 439 kts 317°
2026-04-14 11:17 42.55312 19.57953 36058 ft 435 kts 311°
2026-04-14 11:17 42.59535 19.52092 36047 ft 434 kts 309°
2026-04-14 11:18 42.63711 19.46171 36061 ft 434 kts 310°
2026-04-14 11:18 42.67880 19.40299 36050 ft 435 kts 310°
2026-04-14 11:19 42.72097 19.34390 36059 ft 435 kts 310°
2026-04-14 11:19 42.76323 19.28476 36054 ft 435 kts 310°
2026-04-14 11:20 42.80542 19.22559 36058 ft 436 kts 310°
2026-04-14 11:20 42.84772 19.16613 36057 ft 437 kts 310°
2026-04-14 11:21 42.88984 19.10679 36061 ft 438 kts 310°
2026-04-14 11:21 42.93225 19.04693 36062 ft 439 kts 310°
2026-04-14 11:22 42.97464 18.98697 36055 ft 440 kts 310°
2026-04-14 11:22 43.01712 18.92674 36071 ft 440 kts 310°
2026-04-14 11:23 43.05975 18.86618 36053 ft 442 kts 310°
2026-04-14 11:23 43.10241 18.80546 36054 ft 443 kts 310°
2026-04-14 11:24 43.14496 18.74475 36061 ft 442 kts 310°
2026-04-14 11:24 43.18748 18.68396 36057 ft 442 kts 310°
2026-04-14 11:25 43.22997 18.62308 36044 ft 441 kts 310°
2026-04-14 11:25 43.27239 18.56216 36047 ft 441 kts 310°
2026-04-14 11:26 43.31439 18.50173 36046 ft 440 kts 310°
2026-04-14 11:26 43.35655 18.44092 36050 ft 439 kts 310°
2026-04-14 11:27 43.39846 18.38038 36040 ft 433 kts 311°
2026-04-14 11:27 43.43967 18.32070 36039 ft 429 kts 311°
2026-04-14 11:28 43.48069 18.26115 36041 ft 428 kts 311°
2026-04-14 11:28 43.52156 18.20169 36039 ft 427 kts 311°
2026-04-14 11:29 43.56216 18.14250 36040 ft 427 kts 311°
2026-04-14 11:29 43.60324 18.08249 36032 ft 428 kts 310°
2026-04-14 11:30 43.64379 18.02315 36040 ft 429 kts 310°
2026-04-14 11:30 43.68477 17.96302 36042 ft 430 kts 310°
2026-04-14 11:31 43.72589 17.90257 36029 ft 432 kts 310°
2026-04-14 11:31 43.76714 17.84181 36035 ft 434 kts 310°
2026-04-14 11:32 43.80855 17.78067 36022 ft 435 kts 310°
2026-04-14 11:32 43.84994 17.71945 36018 ft 436 kts 310°
2026-04-14 11:33 43.89126 17.65818 36016 ft 436 kts 310°
2026-04-14 11:34 43.95334 17.56589 36010 ft 437 kts 310°
2026-04-14 11:34 43.99472 17.50420 36008 ft 436 kts 310°
2026-04-14 11:35 44.03604 17.44246 36007 ft 436 kts 310°
2026-04-14 11:35 44.07734 17.38062 36013 ft 436 kts 310°
2026-04-14 11:36 44.11848 17.31887 36008 ft 435 kts 310°
2026-04-14 11:36 44.15959 17.25705 36012 ft 435 kts 310°
2026-04-14 11:37 44.20069 17.19509 35995 ft 435 kts 310°
2026-04-14 11:37 44.24159 17.13330 36009 ft 436 kts 310°
2026-04-14 11:38 44.28269 17.07107 36023 ft 436 kts 310°
2026-04-14 11:38 44.32394 17.00846 36000 ft 438 kts 310°
2026-04-14 11:39 44.36518 16.94575 36004 ft 438 kts 310°
2026-04-14 11:39 44.40610 16.88339 35998 ft 438 kts 310°
2026-04-14 11:40 44.44725 16.82052 36008 ft 438 kts 310°
2026-04-14 11:40 44.48832 16.75764 36001 ft 437 kts 310°
2026-04-14 11:41 44.52933 16.69472 36003 ft 436 kts 310°
2026-04-14 11:41 44.57019 16.63187 36013 ft 436 kts 310°
2026-04-14 11:42 44.61102 16.56894 36011 ft 435 kts 309°
2026-04-14 11:42 44.65179 16.50594 36015 ft 435 kts 309°
2026-04-14 11:43 44.69221 16.44336 36031 ft 435 kts 309°
2026-04-14 11:43 44.73290 16.38021 36018 ft 436 kts 309°
2026-04-14 11:44 44.77359 16.31692 36022 ft 436 kts 309°
2026-04-14 11:44 44.81424 16.25354 36031 ft 437 kts 309°
2026-04-14 11:45 44.85501 16.18984 36038 ft 438 kts 309°
2026-04-14 11:45 44.89578 16.12600 36036 ft 438 kts 309°
2026-04-14 11:46 44.93657 16.06197 36046 ft 439 kts 309°
2026-04-14 11:46 44.97714 15.99814 36055 ft 440 kts 309°
2026-04-14 11:47 45.01803 15.93366 36054 ft 441 kts 309°
2026-04-14 11:47 45.05899 15.86892 36045 ft 441 kts 309°
2026-04-14 11:48 45.09988 15.80414 36049 ft 441 kts 309°
2026-04-14 11:48 45.14077 15.73922 36060 ft 442 kts 309°
2026-04-14 11:49 45.18168 15.67409 36058 ft 443 kts 309°
2026-04-14 11:49 45.22261 15.60879 36063 ft 443 kts 309°
2026-04-14 11:50 45.26330 15.54373 36067 ft 443 kts 309°
2026-04-14 11:50 45.30429 15.47803 36069 ft 443 kts 309°
2026-04-14 11:51 45.36564 15.37940 36066 ft 444 kts 309°
2026-04-14 11:51 45.40641 15.31366 36072 ft 443 kts 309°
2026-04-14 11:52 45.44717 15.24779 36078 ft 443 kts 309°
2026-04-14 11:52 45.48792 15.18177 36077 ft 443 kts 309°
2026-04-14 11:53 45.52828 15.11623 36078 ft 442 kts 309°
2026-04-14 11:53 45.56884 15.05021 36084 ft 442 kts 309°
2026-04-14 11:54 45.60941 14.98400 36086 ft 442 kts 309°
2026-04-14 11:54 45.64993 14.91774 36075 ft 443 kts 308°
2026-04-14 11:55 45.69043 14.85134 36074 ft 443 kts 308°
2026-04-14 11:55 45.73091 14.78481 36078 ft 443 kts 308°
2026-04-14 11:56 45.77116 14.71850 36070 ft 444 kts 308°
2026-04-14 11:56 45.81163 14.65166 36064 ft 444 kts 308°
2026-04-14 11:57 45.85215 14.58459 36065 ft 444 kts 308°
2026-04-14 11:57 45.89253 14.51760 36058 ft 444 kts 308°
2026-04-14 11:58 45.93285 14.45053 36057 ft 444 kts 308°
2026-04-14 11:58 45.97309 14.38342 36051 ft 444 kts 308°
2026-04-14 11:59 46.01332 14.31618 36056 ft 443 kts 308°
2026-04-14 11:59 46.05337 14.24907 36050 ft 443 kts 308°
2026-04-14 12:00 46.09352 14.18164 36045 ft 443 kts 308°
2026-04-14 12:00 46.13363 14.11410 36049 ft 443 kts 308°
2026-04-14 12:01 46.17351 14.04679 36045 ft 444 kts 308°
2026-04-14 12:01 46.21362 13.97891 36049 ft 444 kts 308°
2026-04-14 12:02 46.25373 13.91088 36047 ft 445 kts 308°
2026-04-14 12:02 46.29381 13.84272 36062 ft 445 kts 308°
2026-04-14 12:03 46.33397 13.77427 36063 ft 446 kts 308°
2026-04-14 12:03 46.37419 13.70553 36058 ft 447 kts 307°
2026-04-14 12:04 46.41441 13.63663 36045 ft 448 kts 307°
2026-04-14 12:04 46.45460 13.56759 36053 ft 448 kts 307°
2026-04-14 12:05 46.49453 13.49884 36052 ft 448 kts 307°
2026-04-14 12:05 46.53474 13.42944 36052 ft 449 kts 307°
2026-04-14 12:06 46.57567 13.36099 36043 ft 449 kts 313°
2026-04-14 12:06 46.61315 13.30874 36043 ft 448 kts 315°
2026-04-14 12:07 46.65907 13.24718 36048 ft 449 kts 315°
2026-04-14 12:07 46.70464 13.18538 36040 ft 447 kts 314°
2026-04-14 12:08 46.74980 13.12324 36057 ft 446 kts 314°
2026-04-14 12:08 46.79478 13.06091 36032 ft 446 kts 314°
2026-04-14 12:09 46.83969 12.99848 36029 ft 445 kts 314°
2026-04-14 12:09 46.88439 12.93623 36044 ft 444 kts 314°
2026-04-14 12:10 46.92879 12.87427 36038 ft 444 kts 314°
2026-04-14 12:10 46.97345 12.81179 36034 ft 443 kts 314°
2026-04-14 12:11 47.01800 12.74932 36049 ft 443 kts 314°
2026-04-14 12:11 47.06262 12.68660 36056 ft 443 kts 314°
2026-04-14 12:12 47.10689 12.62421 36060 ft 444 kts 314°
2026-04-14 12:12 47.15149 12.56120 36059 ft 444 kts 314°
2026-04-14 12:13 47.19599 12.49819 36076 ft 444 kts 314°
2026-04-14 12:13 47.24042 12.43511 36095 ft 444 kts 314°
2026-04-14 12:14 47.28484 12.37189 36098 ft 443 kts 314°
2026-04-14 12:14 47.32909 12.30876 36117 ft 442 kts 314°
2026-04-14 12:15 47.37319 12.24569 36125 ft 441 kts 314°
2026-04-14 12:15 47.41724 12.18254 36114 ft 440 kts 314°
2026-04-14 12:16 47.46107 12.11955 36130 ft 439 kts 314°
2026-04-14 12:16 47.50477 12.05657 36142 ft 438 kts 313°
2026-04-14 12:17 47.52424 12.02216 36128 ft 435 kts 301°
2026-04-14 12:17 47.53884 11.98308 36132 ft 432 kts 291°
2026-04-14 12:17 47.55458 11.89872 36150 ft 428 kts 279°
2026-04-14 12:18 47.56591 11.81211 36138 ft 429 kts 279°
2026-04-14 12:18 47.57753 11.72528 36128 ft 430 kts 280°
2026-04-14 12:19 47.58948 11.63847 36131 ft 430 kts 280°
2026-04-14 12:19 47.60148 11.55151 36136 ft 431 kts 280°
2026-04-14 12:20 47.61343 11.46436 36145 ft 432 kts 280°
2026-04-14 12:20 47.62524 11.37692 36144 ft 432 kts 279°
2026-04-14 12:21 47.63596 11.28960 36129 ft 433 kts 279°
2026-04-14 12:21 47.64641 11.20161 36137 ft 433 kts 279°
2026-04-14 12:22 47.65689 11.11376 36135 ft 434 kts 279°
2026-04-14 12:22 47.66741 11.02552 36132 ft 434 kts 279°
2026-04-14 12:23 47.67790 10.93720 36125 ft 435 kts 279°
2026-04-14 12:23 47.68834 10.84864 36131 ft 435 kts 279°
2026-04-14 12:24 47.69868 10.76029 36128 ft 434 kts 279°
2026-04-14 12:24 47.70894 10.67198 36126 ft 434 kts 279°
2026-04-14 12:25 47.71914 10.58363 36127 ft 433 kts 279°
2026-04-14 12:25 47.72926 10.49537 36132 ft 433 kts 279°
2026-04-14 12:26 47.73946 10.40737 36142 ft 432 kts 283°
2026-04-14 12:26 47.74952 10.36545 36148 ft 431 kts 298°
2026-04-14 12:26 47.76568 10.32803 36142 ft 431 kts 310°
2026-04-14 12:27 47.80990 10.26910 36155 ft 431 kts 321°
2026-04-14 12:27 47.85676 10.21352 36155 ft 431 kts 321°
2026-04-14 12:28 47.90347 10.15736 36161 ft 432 kts 320°
2026-04-14 12:28 47.95002 10.10055 36159 ft 433 kts 320°
2026-04-14 12:29 47.99662 10.04330 36159 ft 434 kts 320°
2026-04-14 12:29 48.04326 9.98583 36155 ft 435 kts 320°
2026-04-14 12:30 48.08993 9.92822 36153 ft 435 kts 320°
2026-04-14 12:30 48.13664 9.87042 36161 ft 436 kts 320°
2026-04-14 12:31 48.18342 9.81240 36164 ft 436 kts 320°
2026-04-14 12:31 48.22995 9.75455 36158 ft 437 kts 320°
2026-04-14 12:32 48.27671 9.69626 36158 ft 437 kts 320°
2026-04-14 12:32 48.32336 9.63797 36161 ft 436 kts 319°
2026-04-14 12:33 48.36448 9.57133 36175 ft 434 kts 307°
2026-04-14 12:33 48.40075 9.49867 36157 ft 434 kts 306°
2026-04-14 12:34 48.43691 9.42587 36160 ft 434 kts 307°
2026-04-14 12:34 48.47325 9.35338 36154 ft 433 kts 307°
2026-04-14 12:35 48.50937 9.28160 36156 ft 432 kts 307°
2026-04-14 12:35 48.54740 9.21151 36166 ft 431 kts 312°
2026-04-14 12:36 48.58873 9.14574 36156 ft 430 kts 313°
2026-04-14 12:36 48.63014 9.08050 36159 ft 430 kts 313°
2026-04-14 12:37 48.67118 9.01483 36158 ft 429 kts 313°
2026-04-14 12:37 48.71195 8.94885 36157 ft 429 kts 313°
2026-04-14 12:38 48.77261 8.85011 36165 ft 428 kts 313°
2026-04-14 12:39 48.81315 8.78390 36165 ft 428 kts 313°
2026-04-14 12:39 48.85366 8.71758 36167 ft 428 kts 313°
2026-04-14 12:40 48.89408 8.65124 36173 ft 428 kts 313°
2026-04-14 12:40 48.93451 8.58472 36175 ft 428 kts 313°
2026-04-14 12:41 48.97484 8.51818 36175 ft 428 kts 313°
2026-04-14 12:41 49.01487 8.45200 36177 ft 427 kts 313°
2026-04-14 12:42 49.05507 8.38533 36176 ft 427 kts 313°
2026-04-14 12:42 49.09526 8.31853 36178 ft 427 kts 313°
2026-04-14 12:43 49.13540 8.25163 36178 ft 426 kts 313°
2026-04-14 12:43 49.17539 8.18481 36178 ft 426 kts 313°
2026-04-14 12:44 49.21534 8.11789 36181 ft 425 kts 313°
2026-04-14 12:44 49.25492 8.05142 36182 ft 425 kts 313°
2026-04-14 12:45 49.31446 7.95109 36183 ft 424 kts 313°
2026-04-14 12:45 49.35401 7.88423 36181 ft 423 kts 313°
2026-04-14 12:46 49.39349 7.81732 36179 ft 422 kts 313°
2026-04-14 12:46 49.43284 7.75047 36176 ft 422 kts 313°
2026-04-14 12:47 49.47214 7.68351 36175 ft 421 kts 312°
2026-04-14 12:47 49.51138 7.61649 36175 ft 418 kts 312°
2026-04-14 12:48 49.54949 7.55122 36171 ft 409 kts 312°
2026-04-14 12:48 49.58728 7.48635 36175 ft 406 kts 312°
2026-04-14 12:49 49.60616 7.45389 35850 ft 406 kts 312°
2026-04-14 12:49 49.62483 7.42173 35541 ft 400 kts 312°
2026-04-14 12:49 49.64329 7.38989 35161 ft 397 kts 313°
2026-04-14 12:49 49.66163 7.35822 34791 ft 394 kts 313°
2026-04-14 12:50 49.67985 7.32674 34420 ft 391 kts 313°
2026-04-14 12:50 49.71585 7.26439 33597 ft 386 kts 313°
2026-04-14 12:50 49.73365 7.23352 33201 ft 383 kts 313°
2026-04-14 12:51 49.75131 7.20285 32822 ft 380 kts 313°
2026-04-14 12:51 49.76877 7.17248 32451 ft 377 kts 313°
2026-04-14 12:51 49.78592 7.14263 32087 ft 374 kts 313°
2026-04-14 12:51 49.80314 7.11262 31735 ft 371 kts 313°
2026-04-14 12:52 49.82022 7.08283 31372 ft 369 kts 313°
2026-04-14 12:52 49.83717 7.05322 31026 ft 366 kts 313°
2026-04-14 12:52 49.85398 7.02381 30672 ft 364 kts 313°
2026-04-14 12:52 49.87073 6.99448 30319 ft 362 kts 313°
2026-04-14 12:53 49.88739 6.96528 29924 ft 360 kts 313°
2026-04-14 12:53 49.90385 6.93640 29529 ft 356 kts 313°
2026-04-14 12:53 49.92017 6.90775 29186 ft 352 kts 313°
2026-04-14 12:53 49.93091 6.88885 28935 ft 350 kts 313°
2026-04-14 12:54 49.94697 6.86060 28579 ft 347 kts 313°
2026-04-14 12:54 49.96282 6.83265 28235 ft 344 kts 313°
2026-04-14 12:54 49.97861 6.80481 27867 ft 341 kts 313°
2026-04-14 12:54 49.99420 6.77729 27531 ft 338 kts 312°
2026-04-14 12:55 50.00971 6.74987 27171 ft 336 kts 312°
2026-04-14 12:55 50.02508 6.72267 26829 ft 333 kts 312°
2026-04-14 12:55 50.04031 6.69570 26485 ft 331 kts 312°
2026-04-14 12:55 50.05545 6.66886 26154 ft 329 kts 312°
2026-04-14 12:56 50.07049 6.64217 25815 ft 326 kts 312°
2026-04-14 12:56 50.08539 6.61569 25492 ft 325 kts 312°
2026-04-14 12:56 50.10023 6.58930 25157 ft 323 kts 312°
2026-04-14 12:56 50.11500 6.56299 24832 ft 321 kts 311°
2026-04-14 12:57 50.12969 6.53682 24502 ft 320 kts 311°
2026-04-14 12:57 50.14433 6.51070 24175 ft 319 kts 311°
2026-04-14 12:57 50.15869 6.48505 23856 ft 318 kts 311°
2026-04-14 12:57 50.17319 6.45913 23480 ft 317 kts 311°
2026-04-14 12:58 50.18749 6.43355 23115 ft 315 kts 311°
2026-04-14 12:58 50.20174 6.40802 22781 ft 313 kts 311°
2026-04-14 12:58 50.21602 6.38241 22463 ft 311 kts 311°
2026-04-14 12:58 50.23015 6.35705 22131 ft 309 kts 311°
2026-04-14 12:59 50.24419 6.33183 21800 ft 307 kts 311°
2026-04-14 12:59 50.25814 6.30675 21489 ft 305 kts 311°
2026-04-14 12:59 50.27201 6.28178 21174 ft 303 kts 311°
2026-04-14 12:59 50.28583 6.25689 20870 ft 303 kts 311°
2026-04-14 13:00 50.29964 6.23198 20560 ft 303 kts 311°
2026-04-14 13:00 50.31341 6.20712 20246 ft 301 kts 311°
2026-04-14 13:00 50.32710 6.18238 19940 ft 300 kts 311°
2026-04-14 13:00 50.34058 6.15801 19634 ft 299 kts 311°
2026-04-14 13:01 50.35418 6.13339 19330 ft 298 kts 311°
2026-04-14 13:01 50.36771 6.10887 19016 ft 297 kts 311°
2026-04-14 13:01 50.38117 6.08444 18713 ft 296 kts 311°
2026-04-14 13:01 50.39462 6.06003 18396 ft 297 kts 311°
2026-04-14 13:02 50.40818 6.03538 18061 ft 300 kts 311°
2026-04-14 13:02 50.42184 6.01054 17726 ft 300 kts 311°
2026-04-14 13:02 50.43543 5.98578 17396 ft 298 kts 310°
2026-04-14 13:02 50.44887 5.96128 17077 ft 297 kts 310°
2026-04-14 13:03 50.46236 5.93668 16762 ft 296 kts 310°
2026-04-14 13:03 50.47562 5.91246 16458 ft 294 kts 310°
2026-04-14 13:03 50.48896 5.88807 16152 ft 293 kts 310°
2026-04-14 13:03 50.50222 5.86382 15838 ft 292 kts 310°
2026-04-14 13:04 50.51544 5.83960 15534 ft 291 kts 310°
2026-04-14 13:04 50.52862 5.81543 15238 ft 291 kts 310°
2026-04-14 13:04 50.54178 5.79130 14924 ft 290 kts 310°
2026-04-14 13:04 50.55489 5.76725 14626 ft 290 kts 310°
2026-04-14 13:05 50.56798 5.74319 14315 ft 289 kts 310°
2026-04-14 13:05 50.58106 5.71911 14015 ft 289 kts 310°
2026-04-14 13:05 50.59405 5.69476 13542 ft 293 kts 309°
2026-04-14 13:05 50.60688 5.66972 13194 ft 293 kts 308°
2026-04-14 13:06 50.61958 5.64467 12848 ft 293 kts 308°
2026-04-14 13:06 50.63223 5.61966 12524 ft 291 kts 308°
2026-04-14 13:06 50.64486 5.59474 12219 ft 290 kts 308°
2026-04-14 13:06 50.65744 5.56991 11899 ft 289 kts 308°
2026-04-14 13:07 50.66993 5.54525 11613 ft 287 kts 308°
2026-04-14 13:07 50.68221 5.52100 11313 ft 286 kts 308°
2026-04-14 13:07 50.69474 5.49626 11010 ft 284 kts 308°
2026-04-14 13:07 50.70705 5.47194 10720 ft 283 kts 308°
2026-04-14 13:08 50.71929 5.44773 10422 ft 282 kts 308°
2026-04-14 13:08 50.73126 5.42405 10273 ft 275 kts 308°
2026-04-14 13:08 50.74317 5.40046 9991 ft 274 kts 308°
2026-04-14 13:08 50.75504 5.37692 9689 ft 273 kts 308°
2026-04-14 13:09 50.76682 5.35355 9390 ft 271 kts 308°
2026-04-14 13:09 50.77851 5.33033 9104 ft 269 kts 308°
2026-04-14 13:09 50.79016 5.30718 8808 ft 268 kts 308°
2026-04-14 13:09 50.80169 5.28423 8542 ft 266 kts 307°
2026-04-14 13:10 50.81322 5.26127 8260 ft 265 kts 307°
2026-04-14 13:10 50.82467 5.23845 7988 ft 264 kts 307°
2026-04-14 13:10 50.83603 5.21581 7714 ft 262 kts 307°
2026-04-14 13:10 50.84734 5.19323 7445 ft 261 kts 307°
2026-04-14 13:11 50.85861 5.17072 7166 ft 260 kts 307°
2026-04-14 13:11 50.86970 5.14854 6918 ft 260 kts 307°
2026-04-14 13:11 50.88063 5.12573 6644 ft 259 kts 302°
2026-04-14 13:11 50.89040 5.10182 6364 ft 258 kts 301°
2026-04-14 13:12 50.89986 5.07778 6102 ft 258 kts 301°
2026-04-14 13:12 50.90938 5.05367 5820 ft 257 kts 301°
2026-04-14 13:12 50.91894 5.02969 5542 ft 257 kts 301°
2026-04-14 13:12 50.92840 5.00601 5429 ft 250 kts 301°
2026-04-14 13:13 50.93765 4.98295 5308 ft 244 kts 301°
2026-04-14 13:13 50.94661 4.96054 5198 ft 238 kts 301°
2026-04-14 13:13 50.95544 4.93844 4942 ft 238 kts 301°
2026-04-14 13:13 50.96421 4.91652 4818 ft 232 kts 301°
2026-04-14 13:14 50.97265 4.89507 4572 ft 231 kts 296°
2026-04-14 13:14 50.97567 4.87062 4303 ft 228 kts 259°
2026-04-14 13:14 50.97199 4.84620 4081 ft 227 kts 256°
2026-04-14 13:14 50.96787 4.82208 3832 ft 227 kts 252°
2026-04-14 13:15 50.96276 4.79831 3607 ft 227 kts 250°
2026-04-14 13:15 50.95729 4.77472 3309 ft 229 kts 249°
2026-04-14 13:15 50.95169 4.75108 3116 ft 226 kts 249°
2026-04-14 13:15 50.94638 4.72808 2916 ft 221 kts 249°
2026-04-14 13:16 50.94112 4.70544 2629 ft 216 kts 249°
2026-04-14 13:16 50.93598 4.68331 2340 ft 210 kts 249°
2026-04-14 13:16 50.93110 4.66228 2046 ft 201 kts 250°
2026-04-14 13:16 50.92634 4.64184 1780 ft 192 kts 249°
2026-04-14 13:17 50.92189 4.62250 1520 ft 181 kts 249°
2026-04-14 13:17 50.91771 4.60430 1279 ft 170 kts 249°
2026-04-14 13:17 50.91384 4.58766 1060 ft 156 kts 249°
2026-04-14 13:17 50.91016 4.57188 844 ft 151 kts 250°
2026-04-14 13:18 50.90651 4.55621 641 ft 150 kts 251°
2026-04-14 13:18 50.90295 4.54066 440 ft 151 kts 251°
2026-04-14 13:18 50.89936 4.52506 238 ft 150 kts 252°
2026-04-14 13:18 50.89594 4.51010 174 ft 134 kts 249°
2026-04-14 13:19 50.89315 4.49809 177 ft 99 kts 250°
2026-04-14 13:19 50.89159 4.49140 175 ft 20 kts 250°
2026-04-14 13:19 50.89188 4.49041 175 ft 12 kts
2026-04-14 13:19 50.89286 4.49075 168 ft 17 kts 14°
2026-04-14 13:20 50.89313 4.49085 166 ft 0 kts 14°
2026-04-14 13:20 50.89333 4.49084 166 ft 6 kts 345°
2026-04-14 13:20 50.89391 4.49021 162 ft 14 kts 336°
2026-04-14 13:20 50.89504 4.49040 157 ft 18 kts 14°
2026-04-14 13:21 50.89620 4.49110 153 ft 18 kts 33°
2026-04-14 13:21 50.89744 4.49185 145 ft 21 kts 14°
2026-04-14 13:21 50.89896 4.49246 137 ft 25 kts 14°
2026-04-14 13:21 50.90077 4.49318 130 ft 27 kts 15°
2026-04-14 13:22 50.90252 4.49390 124 ft 21 kts 14°
2026-04-14 13:22 50.90364 4.49341 124 ft 17 kts 333°
2026-04-14 13:22 50.90472 4.49260 120 ft 17 kts 335°
2026-04-14 13:22 50.90578 4.49182 121 ft 17 kts 335°
2026-04-14 13:23 50.90643 4.49063 120 ft 16 kts 247°
2026-04-14 13:23 50.90596 4.48904 118 ft 16 kts 245°
2026-04-14 13:23 50.90550 4.48745 117 ft 16 kts 245°
2026-04-14 13:23 50.90506 4.48591 116 ft 15 kts 245°
2026-04-14 13:24 50.90460 4.48433 119 ft 17 kts 245°
2026-04-14 13:24 50.90358 4.48079 118 ft 19 kts 246°
2026-04-14 13:24 50.90304 4.47896 118 ft 18 kts 245°
2026-04-14 13:25 50.90253 4.47720 119 ft 17 kts 245°
2026-04-14 13:25 50.90210 4.47655 117 ft 7 kts 169°
2026-04-14 13:26 50.90158 4.47690 117 ft 0 kts 155°